User: anonymous   Login
Location: Hradec Kralove
(50.2170°N, 15.8330°E)
Time: 05:57:28
(UTC+01:00)
Language:

EO-79 - Orbit

View from above orbital plane
View from above orbital plane
View from above satellite
View from above satellite

Ground track
Ground track

The orbit data is extracted from the following two-line orbital elements,

1 40025U 14033R   24057.44712224  .00008422  00000-0  72572-3 0  9998
2 40025  98.0310  14.8175 0010843 158.1779 201.9906 14.97544490526146
Epoch (UTC): 26 February 2024 10:43:51
Eccentricity: 0.0010843
inclination: 98.0310°
perigee height: 567 km
apogee height: 582 km
right ascension of ascending node: 14.8175°
argument of perigee: 158.1779°
revolutions per day: 14.97544490
mean anomaly at epoch: 201.9906°
orbit number at epoch: 52614

The dashed part of the orbit path shows where the satellite is in the earth's shadow,  

DLR